Year,Month,Day,Hour,Minute,Value (Times are PST for temperature in C)
2012,08,09,00,00,13.00
2012,08,09,00,01,13.00
2012,08,09,00,02,13.00
2012,08,09,00,03,13.00
2012,08,09,00,04,13.00
2012,08,09,00,05,13.00
2012,08,09,00,06,12.90
2012,08,09,00,07,12.90
2012,08,09,00,08,12.90
2012,08,09,00,09,12.90
2012,08,09,00,10,12.90
2012,08,09,00,11,12.90
2012,08,09,00,12,12.90
2012,08,09,00,13,12.90
2012,08,09,00,14,12.90
2012,08,09,00,15,12.90
2012,08,09,00,16,12.90
2012,08,09,00,17,12.90
2012,08,09,00,18,12.80
2012,08,09,00,19,12.80
2012,08,09,00,20,12.80
2012,08,09,00,21,12.80
2012,08,09,00,22,12.80
2012,08,09,00,23,12.80
2012,08,09,00,24,12.80
2012,08,09,00,25,12.80
2012,08,09,00,26,12.80
2012,08,09,00,27,12.80
2012,08,09,00,28,12.80
2012,08,09,00,29,12.70
2012,08,09,00,30,12.70
2012,08,09,00,31,12.70
2012,08,09,00,32,12.80
2012,08,09,00,33,12.80
2012,08,09,00,34,12.70
2012,08,09,00,35,12.70
2012,08,09,00,36,12.70
2012,08,09,00,37,12.70
2012,08,09,00,38,12.70
2012,08,09,00,39,12.70
2012,08,09,00,40,12.70
2012,08,09,00,41,12.70
2012,08,09,00,42,12.70
2012,08,09,00,43,12.70
2012,08,09,00,44,12.60
2012,08,09,00,45,12.60
2012,08,09,00,46,12.60
2012,08,09,00,47,12.60
2012,08,09,00,48,12.60
2012,08,09,00,49,12.50
2012,08,09,00,50,12.60
2012,08,09,00,51,12.60
2012,08,09,00,52,12.60
2012,08,09,00,53,12.50
2012,08,09,00,54,12.50
2012,08,09,00,55,12.50
2012,08,09,00,56,12.50
2012,08,09,00,57,12.50
2012,08,09,00,58,12.50
2012,08,09,00,59,12.50
2012,08,09,01,00,12.40
2012,08,09,01,01,12.40
2012,08,09,01,02,12.40
2012,08,09,01,03,12.40
2012,08,09,01,04,12.40
2012,08,09,01,05,12.40
2012,08,09,01,06,12.40
2012,08,09,01,07,12.40
2012,08,09,01,08,12.40
2012,08,09,01,09,12.40
2012,08,09,01,10,12.40
2012,08,09,01,11,12.40
2012,08,09,01,12,12.40
2012,08,09,01,13,12.40
2012,08,09,01,14,12.40
2012,08,09,01,15,12.40
2012,08,09,01,16,12.40
2012,08,09,01,17,12.30
2012,08,09,01,18,12.40
2012,08,09,01,19,12.40
2012,08,09,01,20,12.30
2012,08,09,01,21,12.30
2012,08,09,01,22,12.30
2012,08,09,01,23,12.30
2012,08,09,01,24,12.30
2012,08,09,01,25,12.30
2012,08,09,01,26,12.30
2012,08,09,01,27,12.30
2012,08,09,01,28,12.30
2012,08,09,01,29,12.20
2012,08,09,01,30,12.20
2012,08,09,01,31,12.20
2012,08,09,01,32,12.20
2012,08,09,01,33,12.20
2012,08,09,01,34,12.20
2012,08,09,01,35,12.20
2012,08,09,01,36,12.20
2012,08,09,01,37,12.20
2012,08,09,01,38,12.10
2012,08,09,01,39,12.10
2012,08,09,01,40,12.10
2012,08,09,01,41,12.10
2012,08,09,01,42,12.10
2012,08,09,01,43,12.10
2012,08,09,01,44,12.10
2012,08,09,01,45,12.10
2012,08,09,01,46,12.10
2012,08,09,01,47,12.20
2012,08,09,01,48,12.10
2012,08,09,01,49,12.10
2012,08,09,01,50,12.10
2012,08,09,01,51,12.10
2012,08,09,01,52,12.10
2012,08,09,01,53,12.10
2012,08,09,01,54,12.10
2012,08,09,01,55,12.10
2012,08,09,01,56,12.10
2012,08,09,01,57,12.10
2012,08,09,01,58,12.00
2012,08,09,01,59,12.00
2012,08,09,02,00,12.00
2012,08,09,02,01,12.00
2012,08,09,02,02,12.00
2012,08,09,02,03,12.00
2012,08,09,02,04,12.00
2012,08,09,02,05,12.00
2012,08,09,02,06,12.00
2012,08,09,02,07,12.00
2012,08,09,02,08,12.00
2012,08,09,02,09,11.90
2012,08,09,02,10,11.90
2012,08,09,02,11,11.90
2012,08,09,02,12,12.00
2012,08,09,02,13,11.90
2012,08,09,02,14,11.90
2012,08,09,02,15,11.90
2012,08,09,02,16,11.90
2012,08,09,02,17,11.90
2012,08,09,02,18,11.90
2012,08,09,02,19,11.90
2012,08,09,02,20,11.90
2012,08,09,02,21,11.90
2012,08,09,02,22,11.80
2012,08,09,02,23,11.80
2012,08,09,02,24,11.80
2012,08,09,02,25,11.80
2012,08,09,02,26,11.80
2012,08,09,02,27,11.80
2012,08,09,02,28,11.80
2012,08,09,02,29,11.80
2012,08,09,02,30,11.80
2012,08,09,02,31,11.80
2012,08,09,02,32,11.80
2012,08,09,02,33,11.80
2012,08,09,02,34,11.80
2012,08,09,02,35,11.80
2012,08,09,02,36,11.80
2012,08,09,02,37,11.80
2012,08,09,02,38,11.80
2012,08,09,02,39,11.80
2012,08,09,02,40,11.80
2012,08,09,02,41,11.80
2012,08,09,02,42,11.80
2012,08,09,02,43,11.80
2012,08,09,02,44,11.70
2012,08,09,02,45,11.70
2012,08,09,02,46,11.70
2012,08,09,02,47,11.70
2012,08,09,02,48,11.70
2012,08,09,02,49,11.70
2012,08,09,02,50,11.70
2012,08,09,02,51,11.70
2012,08,09,02,52,11.70
2012,08,09,02,53,11.70
2012,08,09,02,54,11.70
2012,08,09,02,55,11.60
2012,08,09,02,56,11.60
2012,08,09,02,57,11.60
2012,08,09,02,58,11.60
2012,08,09,02,59,11.60
2012,08,09,03,00,11.60
2012,08,09,03,01,11.60
2012,08,09,03,02,11.60
2012,08,09,03,06,11.60
2012,08,09,03,07,11.50
2012,08,09,03,08,11.50
2012,08,09,03,09,11.50
2012,08,09,03,10,11.50
2012,08,09,03,11,11.50
2012,08,09,03,12,11.50
2012,08,09,03,13,11.50
2012,08,09,03,14,11.50
2012,08,09,03,15,11.50
2012,08,09,03,16,11.50
2012,08,09,03,17,11.50
2012,08,09,03,18,11.50
2012,08,09,03,19,11.50
2012,08,09,03,20,11.50
2012,08,09,03,21,11.50
2012,08,09,03,22,11.50
2012,08,09,03,23,11.50
2012,08,09,03,24,11.40
2012,08,09,03,25,11.40
2012,08,09,03,26,11.40
2012,08,09,03,27,11.40
2012,08,09,03,28,11.40
2012,08,09,03,29,11.40
2012,08,09,03,30,11.40
2012,08,09,03,31,11.40
2012,08,09,03,32,11.30
2012,08,09,03,33,11.30
2012,08,09,03,34,11.30
2012,08,09,03,35,11.30
2012,08,09,03,36,11.30
2012,08,09,03,37,11.40
2012,08,09,03,38,11.30
2012,08,09,03,39,11.30
2012,08,09,03,40,11.30
2012,08,09,03,41,11.40
2012,08,09,03,42,11.40
2012,08,09,03,43,11.40
2012,08,09,03,44,11.40
2012,08,09,03,45,11.30
2012,08,09,03,46,11.30
2012,08,09,03,47,11.30
2012,08,09,03,48,11.30
2012,08,09,03,49,11.30
2012,08,09,03,50,11.30
2012,08,09,03,51,11.30
2012,08,09,03,52,11.30
2012,08,09,03,53,11.30
2012,08,09,03,54,11.30
2012,08,09,03,55,11.30
2012,08,09,03,56,11.30
2012,08,09,03,57,11.30
2012,08,09,03,58,11.30
2012,08,09,03,59,11.30
2012,08,09,04,00,11.30
2012,08,09,04,01,11.30
2012,08,09,04,02,11.30
2012,08,09,04,03,11.30
2012,08,09,04,04,11.30
2012,08,09,04,05,11.30
2012,08,09,04,06,11.30
2012,08,09,04,07,11.30
2012,08,09,04,08,11.20
2012,08,09,04,09,11.20
2012,08,09,04,10,11.20
2012,08,09,04,11,11.20
2012,08,09,04,12,11.20
2012,08,09,04,13,11.20
2012,08,09,04,14,11.20
2012,08,09,04,15,11.20
2012,08,09,04,16,11.20
2012,08,09,04,17,11.20
2012,08,09,04,18,11.20
2012,08,09,04,19,11.20
2012,08,09,04,20,11.20
2012,08,09,04,21,11.20
2012,08,09,04,22,11.20
2012,08,09,04,23,11.20
2012,08,09,04,24,11.20
2012,08,09,04,25,11.20
2012,08,09,04,26,11.20
2012,08,09,04,27,11.10
2012,08,09,04,28,11.10
2012,08,09,04,29,11.10
2012,08,09,04,30,11.10
2012,08,09,04,31,11.10
2012,08,09,04,32,11.10
2012,08,09,04,33,11.10
2012,08,09,04,34,11.10
2012,08,09,04,35,11.00
2012,08,09,04,36,11.00
2012,08,09,04,37,11.00
2012,08,09,04,38,10.90
2012,08,09,04,39,10.90
2012,08,09,04,40,10.90
2012,08,09,04,41,10.90
2012,08,09,04,42,10.90
2012,08,09,04,43,10.90
2012,08,09,04,44,10.90
2012,08,09,04,45,10.80
2012,08,09,04,46,10.80
2012,08,09,04,47,10.80
2012,08,09,04,48,10.80
2012,08,09,04,49,10.80
2012,08,09,04,50,10.80
2012,08,09,04,51,10.80
2012,08,09,04,52,10.80
2012,08,09,04,53,10.80
2012,08,09,04,54,10.80
2012,08,09,04,55,10.80
2012,08,09,04,56,10.80
2012,08,09,04,57,10.80
2012,08,09,04,58,10.80
2012,08,09,04,59,10.80
2012,08,09,05,00,10.80
2012,08,09,05,01,10.80
2012,08,09,05,02,10.70
2012,08,09,05,03,10.70
2012,08,09,05,04,10.70
2012,08,09,05,05,10.80
2012,08,09,05,06,10.80
2012,08,09,05,07,10.80
2012,08,09,05,08,10.80
2012,08,09,05,09,10.90
2012,08,09,05,10,11.00
2012,08,09,05,11,11.10
2012,08,09,05,12,11.10
2012,08,09,05,13,11.20
2012,08,09,05,14,11.30
2012,08,09,05,15,11.30
2012,08,09,05,16,11.30
2012,08,09,05,17,11.40
2012,08,09,05,18,11.50
2012,08,09,05,19,11.70
2012,08,09,05,20,11.80
2012,08,09,05,21,11.90
2012,08,09,05,22,12.00
2012,08,09,05,23,12.20
2012,08,09,05,24,12.30
2012,08,09,05,25,12.40
2012,08,09,05,26,12.40
2012,08,09,05,27,12.40
2012,08,09,05,28,12.30
2012,08,09,05,29,12.20
2012,08,09,05,30,12.20
2012,08,09,05,31,12.10
2012,08,09,05,32,12.00
2012,08,09,05,33,12.00
2012,08,09,05,34,11.90
2012,08,09,05,35,11.90
2012,08,09,05,36,12.00
2012,08,09,05,37,12.00
2012,08,09,05,38,12.00
2012,08,09,05,39,11.90
2012,08,09,05,40,11.90
2012,08,09,05,41,11.80
2012,08,09,05,42,11.80
2012,08,09,05,43,11.80
2012,08,09,05,44,11.80
2012,08,09,05,45,11.80
2012,08,09,05,46,11.80
2012,08,09,05,47,11.90
2012,08,09,05,48,11.90
2012,08,09,05,49,12.00
2012,08,09,05,50,12.00
2012,08,09,05,51,12.10
2012,08,09,05,52,12.10
2012,08,09,05,53,12.10
2012,08,09,05,54,12.10
2012,08,09,05,55,12.10
2012,08,09,05,56,12.10
2012,08,09,05,57,12.10
2012,08,09,05,58,12.10
2012,08,09,05,59,12.10
2012,08,09,06,00,12.10
2012,08,09,06,01,12.10
2012,08,09,06,02,12.10
2012,08,09,06,03,12.00
2012,08,09,06,04,12.00
2012,08,09,06,05,11.90
2012,08,09,06,06,11.90
2012,08,09,06,07,11.90
2012,08,09,06,08,11.90
2012,08,09,06,09,12.00
2012,08,09,06,10,12.00
2012,08,09,06,11,12.00
2012,08,09,06,12,12.10
2012,08,09,06,13,12.10
2012,08,09,06,14,12.10
2012,08,09,06,15,12.10
2012,08,09,06,16,12.10
2012,08,09,06,17,12.10
2012,08,09,06,18,12.20
2012,08,09,06,19,12.20
2012,08,09,06,20,12.20
2012,08,09,06,21,12.30
2012,08,09,06,22,12.30
2012,08,09,06,23,12.40
2012,08,09,06,24,12.50
2012,08,09,06,25,12.60
2012,08,09,06,26,12.70
2012,08,09,06,27,12.80
2012,08,09,06,28,12.80
2012,08,09,06,29,12.80
2012,08,09,06,30,12.80
2012,08,09,06,31,12.80
2012,08,09,06,32,12.80
2012,08,09,06,33,12.80
2012,08,09,06,34,12.70
2012,08,09,06,35,12.70
2012,08,09,06,36,12.60
2012,08,09,06,37,12.50
2012,08,09,06,38,12.40
2012,08,09,06,39,12.30
2012,08,09,06,40,12.30
2012,08,09,06,41,12.20
2012,08,09,06,42,12.20
2012,08,09,06,43,12.10
2012,08,09,06,44,12.10
2012,08,09,06,45,12.10
2012,08,09,06,46,12.10
2012,08,09,06,47,12.00
2012,08,09,06,48,12.00
2012,08,09,06,49,12.00
2012,08,09,06,50,12.00
2012,08,09,06,51,12.10
2012,08,09,06,52,12.10
2012,08,09,06,53,12.20
2012,08,09,06,54,12.20
2012,08,09,06,55,12.30
2012,08,09,06,56,12.30
2012,08,09,06,57,12.40
2012,08,09,06,58,12.40
2012,08,09,06,59,12.40
2012,08,09,07,00,12.40
2012,08,09,07,01,12.40
2012,08,09,07,02,12.30
2012,08,09,07,03,12.30
2012,08,09,07,04,12.30
2012,08,09,07,05,12.40
2012,08,09,07,06,12.40
2012,08,09,07,07,12.40
2012,08,09,07,08,12.40
2012,08,09,07,09,12.40
2012,08,09,07,10,12.50
2012,08,09,07,11,12.60
2012,08,09,07,12,12.60
2012,08,09,07,13,12.70
2012,08,09,07,14,12.70
2012,08,09,07,15,12.70
2012,08,09,07,16,12.80
2012,08,09,07,17,12.80
2012,08,09,07,18,12.80
2012,08,09,07,19,12.80
2012,08,09,07,20,12.90
2012,08,09,07,21,12.90
2012,08,09,07,22,12.90
2012,08,09,07,23,12.90
2012,08,09,07,24,13.00
2012,08,09,07,25,13.00
2012,08,09,07,26,12.90
2012,08,09,07,27,12.90
2012,08,09,07,28,12.90
2012,08,09,07,29,12.90
2012,08,09,07,30,12.80
2012,08,09,07,31,12.80
2012,08,09,07,32,12.80
2012,08,09,07,33,12.80
2012,08,09,07,34,12.80
2012,08,09,07,35,12.80
2012,08,09,07,36,12.90
2012,08,09,07,37,12.90
2012,08,09,07,38,12.90
2012,08,09,07,39,12.90
2012,08,09,07,40,12.90
2012,08,09,07,41,12.90
2012,08,09,07,42,12.90
2012,08,09,07,43,12.90
2012,08,09,07,44,13.00
2012,08,09,07,45,13.10
2012,08,09,07,46,13.20
2012,08,09,07,47,13.30
2012,08,09,07,48,13.40
2012,08,09,07,49,13.40
2012,08,09,07,50,13.60
2012,08,09,07,51,13.70
2012,08,09,07,52,13.80
2012,08,09,07,53,13.80
2012,08,09,07,54,13.90
2012,08,09,07,55,14.00
2012,08,09,07,56,14.10
2012,08,09,07,57,14.20
2012,08,09,07,58,14.30
2012,08,09,07,59,14.30
2012,08,09,08,00,14.40
2012,08,09,08,01,14.50
2012,08,09,08,02,14.50
2012,08,09,08,03,14.60
2012,08,09,08,04,14.70
2012,08,09,08,05,14.80
2012,08,09,08,06,14.80
2012,08,09,08,07,14.90
2012,08,09,08,08,15.00
2012,08,09,08,09,15.10
2012,08,09,08,10,15.20
2012,08,09,08,11,15.30
2012,08,09,08,12,15.40
2012,08,09,08,13,15.40
2012,08,09,08,14,15.50
2012,08,09,08,15,15.60
2012,08,09,08,16,15.70
2012,08,09,08,17,15.70
2012,08,09,08,18,15.80
2012,08,09,08,19,15.90
2012,08,09,08,20,15.90
2012,08,09,08,21,16.00
2012,08,09,08,22,16.00
2012,08,09,08,23,16.10
2012,08,09,08,24,16.20
2012,08,09,08,25,16.20
2012,08,09,08,26,16.30
2012,08,09,08,27,16.30
2012,08,09,08,28,16.40
2012,08,09,08,29,16.40
2012,08,09,08,30,16.50
2012,08,09,08,31,16.50
2012,08,09,08,32,16.50
2012,08,09,08,33,16.60
2012,08,09,08,34,16.60
2012,08,09,08,35,16.70
2012,08,09,08,36,16.70
2012,08,09,08,37,16.80
2012,08,09,08,38,16.80
2012,08,09,08,39,16.90
2012,08,09,08,40,16.90
2012,08,09,08,41,16.90
2012,08,09,08,42,17.00
2012,08,09,08,43,17.00
2012,08,09,08,44,17.10
2012,08,09,08,45,17.10
2012,08,09,08,46,17.20
2012,08,09,08,47,17.20
2012,08,09,08,48,17.20
2012,08,09,08,49,17.30
2012,08,09,08,50,17.30
2012,08,09,08,51,17.30
2012,08,09,08,52,17.40
2012,08,09,08,53,17.40
2012,08,09,08,54,17.40
2012,08,09,08,55,17.50
2012,08,09,08,56,17.50
2012,08,09,08,57,17.60
2012,08,09,08,58,17.60
2012,08,09,08,59,17.60
2012,08,09,09,00,17.70
2012,08,09,09,01,17.70
2012,08,09,09,02,17.70
2012,08,09,09,03,17.70
2012,08,09,09,04,17.80
2012,08,09,09,05,17.80
2012,08,09,09,06,17.80
2012,08,09,09,07,17.90
2012,08,09,09,08,17.90
2012,08,09,09,09,17.90
2012,08,09,09,10,17.90
2012,08,09,09,11,18.00
2012,08,09,09,12,18.00
2012,08,09,09,13,18.00
2012,08,09,09,14,18.10
2012,08,09,09,15,18.10
2012,08,09,09,16,18.10
2012,08,09,09,17,18.20
2012,08,09,09,18,18.20
2012,08,09,09,19,18.20
2012,08,09,09,20,18.30
2012,08,09,09,21,18.30
2012,08,09,09,22,18.30
2012,08,09,09,23,18.40
2012,08,09,09,24,18.40
2012,08,09,09,25,18.40
2012,08,09,09,26,18.50
2012,08,09,09,27,18.50
2012,08,09,09,28,18.50
2012,08,09,09,29,18.50
2012,08,09,09,30,18.50
2012,08,09,09,31,18.60
2012,08,09,09,32,18.60
2012,08,09,09,33,18.60
2012,08,09,09,34,18.70
2012,08,09,09,35,18.70
2012,08,09,09,36,18.80
2012,08,09,09,37,18.80
2012,08,09,09,38,18.80
2012,08,09,09,39,18.80
2012,08,09,09,40,18.90
2012,08,09,09,41,18.90
2012,08,09,09,42,18.90
2012,08,09,09,43,18.90
2012,08,09,09,44,18.90
2012,08,09,09,45,19.00
2012,08,09,09,46,19.00
2012,08,09,09,47,19.10
2012,08,09,09,48,19.10
2012,08,09,09,49,19.10
2012,08,09,09,50,19.10
2012,08,09,09,51,19.20
2012,08,09,09,52,19.20
2012,08,09,09,53,19.20
2012,08,09,09,54,19.20
2012,08,09,09,55,19.20
2012,08,09,09,56,19.20
2012,08,09,09,57,19.20
2012,08,09,09,58,19.20
2012,08,09,09,59,19.20
2012,08,09,10,00,19.10
2012,08,09,10,01,19.10
2012,08,09,10,02,19.10
2012,08,09,10,03,19.10
2012,08,09,10,04,19.00
2012,08,09,10,05,19.00
2012,08,09,10,06,19.00
2012,08,09,10,07,19.00
2012,08,09,10,08,19.00
2012,08,09,10,09,19.00
2012,08,09,10,10,19.10
2012,08,09,10,11,19.10
2012,08,09,10,12,19.10
2012,08,09,10,13,19.10
2012,08,09,10,14,19.10
2012,08,09,10,15,19.10
2012,08,09,10,16,19.20
2012,08,09,10,17,19.20
2012,08,09,10,18,19.20
2012,08,09,10,19,19.20
2012,08,09,10,20,19.20
2012,08,09,10,21,19.20
2012,08,09,10,22,19.20
2012,08,09,10,23,19.30
2012,08,09,10,24,19.30
2012,08,09,10,25,19.40
2012,08,09,10,26,19.50
2012,08,09,10,27,19.60
2012,08,09,10,28,19.70
2012,08,09,10,29,19.70
2012,08,09,10,30,19.80
2012,08,09,10,31,19.80
2012,08,09,10,32,19.70
2012,08,09,10,33,19.70
2012,08,09,10,34,19.70
2012,08,09,10,35,19.70
2012,08,09,10,36,19.70
2012,08,09,10,37,19.70
2012,08,09,10,38,19.70
2012,08,09,10,39,19.70
2012,08,09,10,40,19.70
2012,08,09,10,41,19.80
2012,08,09,10,42,19.80
2012,08,09,10,43,19.80
2012,08,09,10,44,19.90
2012,08,09,10,45,19.90
2012,08,09,10,46,19.90
2012,08,09,10,47,19.90
2012,08,09,10,48,19.90
2012,08,09,10,49,20.00
2012,08,09,10,50,20.00
2012,08,09,10,51,20.00
2012,08,09,10,52,20.00
2012,08,09,10,53,19.90
2012,08,09,10,54,19.90
2012,08,09,10,55,19.90
2012,08,09,10,56,19.90
2012,08,09,10,57,19.90
2012,08,09,10,58,19.90
2012,08,09,10,59,19.90
2012,08,09,11,00,19.90
2012,08,09,11,01,19.90
2012,08,09,11,02,19.90
2012,08,09,11,03,20.00
2012,08,09,11,04,20.00
2012,08,09,11,05,20.10
2012,08,09,11,06,20.10
2012,08,09,11,07,20.20
2012,08,09,11,08,20.30
2012,08,09,11,09,20.40
2012,08,09,11,10,20.50
2012,08,09,11,11,20.60
2012,08,09,11,12,20.70
2012,08,09,11,13,20.80
2012,08,09,11,14,20.90
2012,08,09,11,15,20.90
2012,08,09,11,16,20.90
2012,08,09,11,17,21.00
2012,08,09,11,18,21.00
2012,08,09,11,19,21.00
2012,08,09,11,20,21.10
2012,08,09,11,21,21.10
2012,08,09,11,22,21.10
2012,08,09,11,23,21.10
2012,08,09,11,24,21.10
2012,08,09,11,25,21.10
2012,08,09,11,26,21.10
2012,08,09,11,27,21.20
2012,08,09,11,28,21.20
2012,08,09,11,29,21.30
2012,08,09,11,30,21.40
2012,08,09,11,31,21.50
2012,08,09,11,32,21.70
2012,08,09,11,33,21.80
2012,08,09,11,34,21.90
2012,08,09,11,35,22.00
2012,08,09,11,36,22.10
2012,08,09,11,37,22.10
2012,08,09,11,38,22.20
2012,08,09,11,39,22.30
2012,08,09,11,40,22.40
2012,08,09,11,41,22.50
2012,08,09,11,42,22.50
2012,08,09,11,43,22.60
2012,08,09,11,44,22.60
2012,08,09,11,45,22.70
2012,08,09,11,46,22.80
2012,08,09,11,47,22.80
2012,08,09,11,48,22.80
2012,08,09,11,49,22.90
2012,08,09,11,50,22.90
2012,08,09,11,51,23.00
2012,08,09,11,52,23.00
2012,08,09,11,53,23.10
2012,08,09,11,54,23.10
2012,08,09,11,55,23.10
2012,08,09,11,56,23.20
2012,08,09,11,57,23.20
2012,08,09,11,58,23.30
2012,08,09,11,59,23.30
2012,08,09,12,00,23.30
2012,08,09,12,01,23.30
2012,08,09,12,02,23.40
2012,08,09,12,03,23.40
2012,08,09,12,04,23.40
2012,08,09,12,05,23.40
2012,08,09,12,06,23.30
2012,08,09,12,07,23.30
2012,08,09,12,08,23.30
2012,08,09,12,09,23.30
2012,08,09,12,10,23.30
2012,08,09,12,11,23.30
2012,08,09,12,12,23.30
2012,08,09,12,13,23.40
2012,08,09,12,14,23.40
2012,08,09,12,15,23.40
2012,08,09,12,16,23.40
2012,08,09,12,17,23.40
2012,08,09,12,18,23.30
2012,08,09,12,19,23.20
2012,08,09,12,20,23.10
2012,08,09,12,21,23.00
2012,08,09,12,22,23.00
2012,08,09,12,23,23.00
2012,08,09,12,24,23.10
2012,08,09,12,25,23.10
2012,08,09,12,26,23.10
2012,08,09,12,27,23.20
2012,08,09,12,28,23.20
2012,08,09,12,29,23.20
2012,08,09,12,30,23.20
2012,08,09,12,31,23.20
2012,08,09,12,32,23.30
2012,08,09,12,33,23.30
2012,08,09,12,34,23.30
2012,08,09,12,35,23.30
2012,08,09,12,36,23.30
2012,08,09,12,37,23.30
2012,08,09,12,38,23.30
2012,08,09,12,39,23.30
2012,08,09,12,40,23.30
2012,08,09,12,41,23.30
2012,08,09,12,42,23.40
2012,08,09,12,43,23.40
2012,08,09,12,44,23.40
2012,08,09,12,45,23.50
2012,08,09,12,46,23.50
2012,08,09,12,47,23.50
2012,08,09,12,48,23.60
2012,08,09,12,49,23.60
2012,08,09,12,50,23.70
2012,08,09,12,51,23.70
2012,08,09,12,52,23.70
2012,08,09,12,53,23.60
2012,08,09,12,54,23.50
2012,08,09,12,55,23.40
2012,08,09,12,56,23.30
2012,08,09,12,57,23.30
2012,08,09,12,58,23.20
2012,08,09,12,59,23.20
2012,08,09,13,00,23.30
2012,08,09,13,01,23.30
2012,08,09,13,02,23.40
2012,08,09,13,03,23.40
2012,08,09,13,04,23.50
2012,08,09,13,05,23.50
2012,08,09,13,06,23.60
2012,08,09,13,07,23.60
2012,08,09,13,08,23.70
2012,08,09,13,09,23.80
2012,08,09,13,10,23.80
2012,08,09,13,11,23.90
2012,08,09,13,12,24.00
2012,08,09,13,13,24.10
2012,08,09,13,14,24.20
2012,08,09,13,15,24.30
2012,08,09,13,16,24.30
2012,08,09,13,17,24.40
2012,08,09,13,18,24.40
2012,08,09,13,19,24.40
2012,08,09,13,20,24.40
2012,08,09,13,21,24.40
2012,08,09,13,22,24.40
2012,08,09,13,23,24.40
2012,08,09,13,24,24.40
2012,08,09,13,25,24.40
2012,08,09,13,26,24.40
2012,08,09,13,27,24.50
2012,08,09,13,28,24.50
2012,08,09,13,29,24.60
2012,08,09,13,30,24.50
2012,08,09,13,31,24.50
2012,08,09,13,32,24.60
2012,08,09,13,33,24.60
2012,08,09,13,34,24.70
2012,08,09,13,35,24.70
2012,08,09,13,36,24.70
2012,08,09,13,37,24.80
2012,08,09,13,38,24.80
2012,08,09,13,39,24.80
2012,08,09,13,40,24.80
2012,08,09,13,41,24.70
2012,08,09,13,42,24.70
2012,08,09,13,43,24.60
2012,08,09,13,44,24.60
2012,08,09,13,45,24.50
2012,08,09,13,46,24.50
2012,08,09,13,47,24.50
2012,08,09,13,48,24.50
2012,08,09,13,49,24.60
2012,08,09,13,50,24.60
2012,08,09,13,51,24.60
2012,08,09,13,52,24.60
2012,08,09,13,53,24.60
2012,08,09,13,54,24.60
2012,08,09,13,55,24.70
2012,08,09,13,56,24.60
2012,08,09,13,57,24.60
2012,08,09,13,58,24.70
2012,08,09,13,59,24.70
2012,08,09,14,00,24.80
2012,08,09,14,01,24.80
2012,08,09,14,02,24.80
2012,08,09,14,03,24.80
2012,08,09,14,04,24.80
2012,08,09,14,05,24.80
2012,08,09,14,06,24.80
2012,08,09,14,07,24.80
2012,08,09,14,08,24.90
2012,08,09,14,09,24.90
2012,08,09,14,10,24.90
2012,08,09,14,11,24.90
2012,08,09,14,12,24.90
2012,08,09,14,13,24.80
2012,08,09,14,14,24.80
2012,08,09,14,15,24.70
2012,08,09,14,16,24.70
2012,08,09,14,17,24.70
2012,08,09,14,18,24.70
2012,08,09,14,19,24.70
2012,08,09,14,20,24.70
2012,08,09,14,21,24.70
2012,08,09,14,22,24.70
2012,08,09,14,23,24.70
2012,08,09,14,24,24.80
2012,08,09,14,25,24.80
2012,08,09,14,26,24.80
2012,08,09,14,27,24.80
2012,08,09,14,28,24.80
2012,08,09,14,29,24.80
2012,08,09,14,30,24.80
2012,08,09,14,31,24.80
2012,08,09,14,32,24.80
2012,08,09,14,33,24.70
2012,08,09,14,34,24.70
2012,08,09,14,35,24.70
2012,08,09,14,36,24.60
2012,08,09,14,37,24.50
2012,08,09,14,38,24.40
2012,08,09,14,39,24.40
2012,08,09,14,40,24.30
2012,08,09,14,41,24.40
2012,08,09,14,42,24.40
2012,08,09,14,43,24.40
2012,08,09,14,44,24.50
2012,08,09,14,45,24.60
2012,08,09,14,46,24.70
2012,08,09,14,47,24.70
2012,08,09,14,48,24.80
2012,08,09,14,49,24.80
2012,08,09,14,50,24.90
2012,08,09,14,51,24.90
2012,08,09,14,52,24.90
2012,08,09,14,53,24.90
2012,08,09,14,54,25.00
2012,08,09,14,55,25.00
2012,08,09,14,56,25.00
2012,08,09,14,57,25.00
2012,08,09,14,58,25.00
2012,08,09,14,59,25.00
2012,08,09,15,00,25.10
2012,08,09,15,01,25.10
2012,08,09,15,02,25.00
2012,08,09,15,03,25.10
2012,08,09,15,04,25.10
2012,08,09,15,05,25.10
2012,08,09,15,06,25.10
2012,08,09,15,07,25.20
2012,08,09,15,08,25.20
2012,08,09,15,09,25.20
2012,08,09,15,10,25.20
2012,08,09,15,11,25.10
2012,08,09,15,12,25.10
2012,08,09,15,13,25.00
2012,08,09,15,14,25.00
2012,08,09,15,15,25.10
2012,08,09,15,16,25.10
2012,08,09,15,17,25.10
2012,08,09,15,18,25.20
2012,08,09,15,19,25.20
2012,08,09,15,20,25.10
2012,08,09,15,21,25.00
2012,08,09,15,22,25.00
2012,08,09,15,23,24.90
2012,08,09,15,24,24.90
2012,08,09,15,25,24.80
2012,08,09,15,26,24.80
2012,08,09,15,27,24.90
2012,08,09,15,28,24.90
2012,08,09,15,29,24.90
2012,08,09,15,30,24.90
2012,08,09,15,31,24.90
2012,08,09,15,32,24.90
2012,08,09,15,33,24.90
2012,08,09,15,34,25.00
2012,08,09,15,35,25.00
2012,08,09,15,36,25.00
2012,08,09,15,37,25.10
2012,08,09,15,38,25.10
2012,08,09,15,39,25.10
2012,08,09,15,40,25.10
2012,08,09,15,41,25.10
2012,08,09,15,42,25.00
2012,08,09,15,43,24.80
2012,08,09,15,44,24.70
2012,08,09,15,45,24.60
2012,08,09,15,46,24.50
2012,08,09,15,47,24.30
2012,08,09,15,48,24.20
2012,08,09,15,49,24.20
2012,08,09,15,50,24.20
2012,08,09,15,51,24.20
2012,08,09,15,52,24.20
2012,08,09,15,53,24.20
2012,08,09,15,54,24.20
2012,08,09,15,55,24.30
2012,08,09,15,56,24.40
2012,08,09,15,57,24.50
2012,08,09,15,58,24.60
2012,08,09,15,59,24.60
2012,08,09,16,00,24.70
2012,08,09,16,01,24.70
2012,08,09,16,02,24.80
2012,08,09,16,03,24.90
2012,08,09,16,04,24.90
2012,08,09,16,05,24.90
2012,08,09,16,06,24.90
2012,08,09,16,07,24.90
2012,08,09,16,08,25.00
2012,08,09,16,09,25.10
2012,08,09,16,10,25.10
2012,08,09,16,11,25.20
2012,08,09,16,12,25.20
2012,08,09,16,13,25.20
2012,08,09,16,14,25.30
2012,08,09,16,15,25.30
2012,08,09,16,16,25.40
2012,08,09,16,17,25.40
2012,08,09,16,18,25.40
2012,08,09,16,19,25.40
2012,08,09,16,20,25.50
2012,08,09,16,21,25.60
2012,08,09,16,22,25.60
2012,08,09,16,23,25.60
2012,08,09,16,24,25.60
2012,08,09,16,25,25.60
2012,08,09,16,26,25.70
2012,08,09,16,27,25.70
2012,08,09,16,28,25.70
2012,08,09,16,29,25.70
2012,08,09,16,30,25.70
2012,08,09,16,31,25.80
2012,08,09,16,32,25.80
2012,08,09,16,33,25.80
2012,08,09,16,34,25.70
2012,08,09,16,35,25.70
2012,08,09,16,36,25.60
2012,08,09,16,37,25.50
2012,08,09,16,38,25.30
2012,08,09,16,39,25.10
2012,08,09,16,40,25.00
2012,08,09,16,41,24.90
2012,08,09,16,42,24.90
2012,08,09,16,43,25.00
2012,08,09,16,44,25.00
2012,08,09,16,45,25.00
2012,08,09,16,46,25.00
2012,08,09,16,47,25.10
2012,08,09,16,48,25.10
2012,08,09,16,49,25.20
2012,08,09,16,50,25.30
2012,08,09,16,51,25.30
2012,08,09,16,52,25.40
2012,08,09,16,53,25.40
2012,08,09,16,54,25.50
2012,08,09,16,55,25.60
2012,08,09,16,56,25.60
2012,08,09,16,57,25.50
2012,08,09,16,58,25.50
2012,08,09,16,59,25.50
2012,08,09,17,00,25.40
2012,08,09,17,01,25.50
2012,08,09,17,02,25.50
2012,08,09,17,03,25.50
2012,08,09,17,04,25.60
2012,08,09,17,05,25.60
2012,08,09,17,06,25.60
2012,08,09,17,07,25.60
2012,08,09,17,08,25.60
2012,08,09,17,09,25.50
2012,08,09,17,10,25.40
2012,08,09,17,11,25.40
2012,08,09,17,12,25.30
2012,08,09,17,13,25.30
2012,08,09,17,14,25.30
2012,08,09,17,15,25.30
2012,08,09,17,16,25.30
2012,08,09,17,17,25.30
2012,08,09,17,18,25.30
2012,08,09,17,19,25.20
2012,08,09,17,20,25.20
2012,08,09,17,21,25.00
2012,08,09,17,22,24.90